FW7233 Weather Reports


Display with metric or nautical units.
time (UTC)temp
F
wind
direction
speed
MPH
gust
MPH
rain 1hr
in
rain 24hr
in
rain mn
in
humidity
%
barometer
mb
20260504015531 56 147 1.0 6.0 0.00 0.00 0.00 56 1013.8
20260504014532 56 141 1.0 3.0 0.00 0.00 0.00 56 1014.0
20260504013533 56 146 0.0 6.0 0.00 0.00 0.00 55 1014.0
20260504012531 57 167 2.0 6.0 0.00 0.00 0.00 54 1013.7
20260504004531 58 128 1.0 7.0 0.00 0.00 0.00 55 1014.1
20260504003531 58 153 2.0 4.0 0.00 0.00 0.00 54 1014.0
20260504002531 58 107 3.0 4.0 0.00 0.00 0.00 54 1014.1
20260504000530 59 156 2.0 4.0 0.00 0.00 0.00 55 1014.0
20260503235531 59 137 0.0 4.0 0.00 0.00 0.00 56 1014.5
20260503234532 60 149 2.0 6.0 0.00 0.00 0.00 54 1014.5
20260503233531 60 127 0.0 6.0 0.00 0.00 0.00 55 1014.3
20260503232531 60 169 0.0 6.0 0.00 0.00 0.00 55 1014.6
20260503231530 59 143 2.0 6.0 0.00 0.00 0.00 57 1014.7
20260503225532 60 136 0.0 3.0 0.00 0.00 0.00 56 1014.4
20260503223531 60 116 2.0 4.0 0.00 0.00 0.00 55 1014.6
20260503222531 60 149 2.0 3.0 0.00 0.00 0.00 55 1014.4
20260503221532 60 129 0.0 2.0 0.00 0.00 0.00 55 1014.3
20260503220531 61 167 4.0 6.0 0.00 0.00 0.00 53 1014.5
20260503215534 60 163 0.0 3.0 0.00 0.00 0.00 55 1014.5
20260503214530 59 133 1.0 2.0 0.00 0.00 0.00 58 1014.4
20260503213533 59 155 2.0 2.0 0.00 0.00 0.00 58 1014.5
20260503212531 58 127 0.0 2.0 0.00 0.00 0.00 59 1014.6
20260503210533 61 124 2.0 3.0 0.00 0.00 0.00 52 1014.7
20260503205533 63 166 1.0 3.0 0.00 0.00 0.00 50 1014.8
20260503204532 63 172 1.0 2.0 0.00 0.00 0.00 49 1014.8
20260503203531 64 142 1.0 3.0 0.00 0.00 0.00 49 1014.6
20260503202531 63 122 1.0 3.0 0.00 0.00 0.00 50 1014.5
20260503201533 64 147 1.0 4.0 0.00 0.00 0.00 51 1014.8
20260503200531 63 131 0.0 3.0 0.00 0.00 0.00 51 1014.7
20260503194532 57 142 1.0 3.0 0.00 0.00 0.00 59 1014.6
20260503193530 57 126 0.0 2.0 0.00 0.00 0.00 63 1014.8
20260503192531 57 139 0.0 3.0 0.00 0.00 0.00 66 1014.7
20260503190531 61 136 0.0 2.0 0.00 0.00 0.00 57 1014.8
20260503184531 60 136 0.0 2.0 0.00 0.00 0.00 59 1014.6
20260503181530 68 128 2.0 3.0 0.00 0.00 0.00 44 1014.3
20260503180531 70 129 1.0 3.0 0.00 0.00 0.00 40 1014.3
20260503175531 71 139 0.0 4.0 0.00 0.00 0.00 39 1013.8
20260503174531 71 154 1.0 3.0 0.00 0.00 0.00 38 1014.0
20260503173531 72 143 1.0 4.0 0.00 0.00 0.00 38 1014.1
20260503172533 72 141 0.0 4.0 0.00 0.00 0.00 37 1014.0
20260503171530 74 175 2.0 3.0 0.00 0.00 0.00 38 1013.9
20260503150531 79 168 2.0 9.0 0.00 0.00 0.00 29 1014.5
20260503110531 77 172 4.0 13.0 0.00 0.00 0.00 35 1017.0
20260503080530 69 136 4.0 13.0 0.00 0.00 0.00 48 1018.2
20260503072532 67 183 2.0 7.0 0.00 0.00 0.00 54 1018.4
20260503071530 66 160 5.0 8.0 0.00 0.00 0.00 50 1018.4
20260503070531 66 143 5.0 7.0 0.00 0.00 0.00 49 1018.2
20260503054531 60 162 2.0 6.0 0.00 0.00 0.00 61 1018.2
20260503053532 58 149 3.0 8.0 0.00 0.00 0.00 63 1018.1
20260503051532 56 146 2.0 6.0 0.00 0.00 0.00 66 1018.6
20260503050543 55 137 2.0 6.0 0.00 0.00 0.00 69 1018.5
20260503044531 53 160 2.0 4.0 0.00 0.00 0.00 71 1018.6
20260503042532 49 131 1.0 3.0 0.00 0.00 0.00 81 1018.7
20260503041533 44 130 0.0 2.0 0.00 0.00 0.00 94 1018.8
20260503040533 42 124 0.0 1.0 0.00 0.00 0.00 99 1018.7
20260503033533 39 137 0.0 1.0 0.00 0.00 0.00 99 1018.8
20260503032533 38 136 0.0 1.0 0.00 0.00 0.00 99 1019.1
20260503031532 38 138 0.0 1.0 0.00 0.00 0.00 98 1018.8
20260503030532 39 135 0.0 1.0 0.00 0.00 0.00 98 1019.1
20260503024531 39 138 0.0 1.0 0.00 0.00 0.00 98 1018.8
20260503023531 39 130 0.0 0.0 0.00 0.00 0.00 98 1018.9
20260503022530 39 131 0.0 0.0 0.00 0.00 0.00 98 1019.0
20260503021531 39 131 0.0 0.0 0.00 0.00 0.00 97 1019.0
20260503020531 39 131 0.0 0.0 0.00 0.00 0.00 97 1019.1